Hourly Data Report for October 17, 2014

All times are specified in Local Standard Time (LST). Add 1 hour to adjust for Daylight Saving Time where and when it is observed.

KITCHENER/WATERLOO
ONTARIO

43°27'39.000" N
80°22'43.000" W
321.60 m
6144239
71368
YKF

Download Data

Hourly Data (October 2014)
Hourly Data Report for October 17, 2014
Temp Definition
°C
Dew Point Temp Definition
°C
Rel Hum Definition
%
Wind Dir Definition
10's deg

Wind Spd Definition
km/h
Visibility Definition
km
Stn Press Definition
kPa
Hmdx Definition


Wind Chill Definition


Weather Definition


TIME
00:00 Legend Double Dagger 11.4 10.2 92 26 17 16.1 96.62     LegendNANA
01:00 Legend Double Dagger 11.6 10.2 91 24 15 16.1 96.58     LegendNANA
02:00 Legend Double Dagger 11.5 10.4 93 22 13 4.8 96.53     Fog
03:00 Legend Double Dagger 11.9 10.5 91 23 13 6.4 96.47     Fog
04:00 Legend Double Dagger 11.8 10.2 90 23 17 9.7 96.41     Fog
05:00 Legend Double Dagger 11.8 10.2 90 23 17 9.7 96.38     Fog
06:00 Legend Double Dagger 11.4 10.6 95 22 13 2.4 96.38     Rain,Fog
07:00 Legend Double Dagger 11.7 10.6 93 23 17 11.3 96.35     LegendNANA
08:00 Legend Double Dagger 11.7 10.6 93 24 17 2.4 96.37     Rain,Fog
09:00 Legend Double Dagger 11.9 10.3 90 24 26 8.1 96.38     Fog
10:00 Legend Double Dagger 13.0 10.5 85 23 21 16.1 96.35     LegendNANA
11:00 Legend Double Dagger 14.0 10.7 80 22 26 16.1 96.25     LegendNANA
12:00 Legend Double Dagger 14.1 10.2 77 24 22 16.1 96.21     LegendNANA
13:00 Legend Double Dagger 13.8 10.7 81 22 21 16.1 96.14     LegendNANA
14:00 Legend Double Dagger 14.1 10.8 80 20 26 16.1 96.09     LegendNANA
15:00 Legend Double Dagger 13.9 10.7 81 21 24 16.1 96.10     LegendNANA
16:00 Legend Double Dagger 13.9 10.4 79 22 24 16.1 96.10     LegendNANA
17:00 Legend Double Dagger 13.3 10.7 84 23 26 9.7 96.13     Haze
18:00 Legend Double Dagger 12.9 10.1 83 22 17 16.1 96.13     LegendNANA
19:00 Legend Double Dagger 13.0 10.2 83 22 17 16.1 96.13     LegendNANA
20:00 Legend Double Dagger 13.0 10.2 83 21 17 16.1 96.10     LegendNANA
21:00 Legend Double Dagger 12.4 10.5 88 25 24 16.1 96.15     Rain
22:00 Legend Double Dagger 11.9 9.8 87 26 28 16.1 96.16     LegendNANA
23:00 Legend Double Dagger 11.4 9.3 87 26 26 16.1 96.16     LegendNANA

Notes on Data Quality.

Legend

  • E = Estimated
  • M = Missing
  • NA = Not Available
  • ‡ = Partner data that is not subject to review by the National Climate Archives
Date modified: